www.pogodaiklimat.ru

Погода и климат >> Архив погоды >> Малайзия >> Langkawi


ПОГОДА в Langkawi

  • Прогноз погоды в Langkawi
  • Монитор погоды в Langkawi
  • Климат города

АРХИВ ПОГОДЫ в Langkawi

Время (UTC), дата Ветер
(напр.,м/с)
 
Видим.   Явления Облачность Т
(С)
Тd
(С)
f
(%)
Тe
(С)
Тes
(С)
Комфортность P
(гПа)
Po
(гПа)
Тmin
(С)
Tmax
(С)
R
(мм)
R24
(мм)
S
(см)
00 7.12 СВ 4 16 км 9/3 600 м
[Cu med, cong Ac lent Ci sp]
+27.6 +23.6 79 +38 +38 очень
душно
1008.9 1008.1 +26.1 4
06 7.12 СВ 2 16 км 9/3 660 м
[Cu med, cong Ac lent Ci sp]
+32.2 +23.8 61 +44 +50 опасность
перегрева
1008.7 1007.9
12 7.12 СВ 2 15 км 9/1 800 м
[Sc Ac lent Ci sp]
+28.2 +23.1 74 +38 +38 очень
душно
1007.8 1007.0 +32.6
18 7.12 СВ 2 15 км 9/3 750 м
[Sc Ac lent Ci sp]
+27.4 +23.0 77 +37 +37 очень
душно
1010.3 1009.4
00 8.12 СВ 2 16 км 9/1 660 м
[Cu hum Ac lent Ci fib]
+26.5 +23.9 86 +37 +37 очень
душно
1009.4 1008.6 +25.2
06 8.12 Ю 2 16 км 9/3 660 м
[Cu med, cong Ac lent Ci sp]
+32.8 +24.4 61 +45 +52 опасность
перегрева
1009.0 1008.2
12 8.12 З 1 15 км 9/3 750 м
[Sc Ac lent Ci fib]
+29.4 +24.5 75 +42 +42 опасность
перегрева
1009.1 1008.3 +33.4
18 8.12 В 2 15 км зарница 9/4 500 м
[Cb cap Ac lent Ci sp]
+26.9 +24.4 86 +38 +38 очень
душно
1010.0 1009.2
00 9.12 СВ 1 15 км 9/4 500 м
[Cb cap Ac lent Ci sp]
+26.5 +24.4 88 +37 +37 очень
душно
1010.3 1009.5 +25.8
06 9.12 СЗ 2 15 км мгла 9/4 600 м
[Cu med, cong Ac lent Ci sp]
+30.1 +25.8 78 +45 +51 опасность
перегрева
1009.0 1008.2
12 9.12 СВ 1 15 км зарница 9/4 500 м
[Cb cap Ac lent Ci sp]
+28.1 +23.9 78 +39 +39 очень
душно
1008.6 1007.8 +32.4
18 9.12 СВ 2 15 км 9/3 750 м
[Sc Ac lent Ci sp]
+27.0 +23.8 83 +37 +37 очень
душно
1009.1 1008.3
00 10.12 СВ 2 16 км 9/3 600 м
[Sc Ac lent Ci fib]
+27.2 +23.8 82 +37 +38 очень
душно
1009.3 1008.5 +26.3
06 10.12 З 3 12 км осадки на расстоянии 9/5 500 м
[Cb cap Ac lent Ci fib]
+29.3 +24.6 76 +42 +46 опасность
перегрева
1009.6 1008.8
12 10.12 СВ 3 14 км 9/4 750 м
[Sc Ac lent Ci sp]
+27.0 +25.3 90 +39 +39 очень
душно
1010.2 1009.4 +33.3
18 10.12 С 1 14 км 9/3 750 м
[Sc Ac lent Ci fib]
+26.9 +23.7 83 +37 +37 очень
душно
1010.6 1009.8 0.2
00 11.12 СВ 1 14 км мгла 9/3 600 м
[Cu med, cong Ac lent Ci sp]
+26.9 +24.4 86 +38 +38 очень
душно
1010.3 1009.5 +26.5 0.2
06 11.12 В 4 15 км мгла 9/3 660 м
[Cu med, cong Ac lent Ci sp]
+31.7 +23.7 63 +43 +48 опасность
перегрева
1009.8 1009.0
12 11.12 СВ 2 13 км мгла 9/1 750 м
[Sc Ac lent Ci sp]
+29.0 +24.5 77 +41 +41 опасность
перегрева
1009.4 1008.6 +32.3
18 11.12 СВ 2 13 км мгла 9/3 750 м
[Sc Ac lent Ci sp]
+28.0 +23.5 77 +38 +38 очень
душно
1010.6 1009.8
00 12.12 СВ 1 14 км слабый дождь 9/3 660 м
[Sc Ac lent Ci sp]
+27.4 +24.3 83 +38 +38 очень
душно
1010.5 1009.7 +26.9
06 12.12 СВ 4 14 км мгла 9/3 660 м
[Cu med, cong Ac lent Ci sp]
+30.5 +23.8 67 +42 +46 опасность
перегрева
1010.1 1009.3 0.0
12 12.12 В 3 15 км 9/3 750 м
[Sc Ac lent Ci sp]
+28.7 +22.8 70 +38 +38 очень
душно
1009.8 1009.0 +31.8
18 12.12 СВ 2 14 км 9/3 720 м
[Sc Ac lent Ci sp]
+27.6 +23.4 78 +37 +37 очень
душно
1010.7 1009.9
00 13.12 В 3 14 км мгла 9/3 600 м
[Cu med, cong Ac lent Ci sp]
+27.7 +24.0 80 +38 +38 очень
душно
1011.0 1010.2 +27.2 0.0
06 13.12 В 6 14 км мгла 9/3 660 м
[Cu med, cong Ac lent Ci sp]
+32.3 +23.5 60 +43 +46 опасность
перегрева
1010.5 1009.7
12 13.12 В 2 15 км зарница {ливн. осадки} 9/4 500 м
[Cb cap Ac lent Ci sp]
+27.4 +25.1 87 +39 +39 очень
душно
1010.7 1009.9 +32.7 11
18 13.12 СВ 1 14 км 9/3 720 м
[Sc Ac lent Ci sp]
+26.7 +23.7 84 +37 +37 очень
душно
1011.6 1010.8

 

Местоположение метеостанции Langkawi (Малайзия): широта 6.33 долгота 99.73 высота над уровнем моря 7 м.

В архиве по умолчанию представлена погода в Langkawi за последнюю неделю. Архивные данные за месяц целиком и за предыдущие месяцы, начиная с января 2011 года, Вы можете получить, выбрав интересующий диапазон дат из раскрывающегося списка и нажав кнопку "Ввод!".


*Определитесь, кто Вы:
робот инопланетянин человек

Внимание! Время в таблицах - всемирное. Для получения местного времени необходимо прибавить поправку, которая в Langkawi равна 7 ч.

Смотрите также архив погоды в соседних городах и на ближайших метеорологических станциях:

Погода в Satun (Таиланд) (53 км)
Погода в Kho Hong Agromet (Таиланд) (53 км)
Погода в Alor Star (Малайзия) (75 км)
Погода в Sadao (Таиланд) (91 км)
Погода в Hat Yai (Таиланд) (101 км)
Погода в Butterworth Air Base (Малайзия) (120 км)
Погода в Penang (Малайзия) (129 км)
Погода в Trang (Таиланд) (133 км)
Погода в Songkhla (Таиланд) (137 км)
Погода в Phatthalung Agromet (Таиланд) (147 км)

Пояснения к столбцам:

Ветер - указаны скорость ветра в м/с - средняя за 10 мин, порывы в срок и между сроками (в фигурных скобках) и направление, откуда дует ветер: С - северный, СВ - северо-восточный, В - восточный, ЮВ - юго-восточный, Ю - южный, ЮЗ - юго-западный, З - западный, СЗ - северо-западный.
Видимость - горизонтальная дальность видимости в метрах или километрах. При видимости от 1 до 10 км при отсутствии осадков обычно наблюдается дымка, при ухудшении видимости до 1 км и менее - туман. В сухую погоду видимость может ухудшаться дымом, пылью или мглою.
Явления - указаны атмосферные явления, наблюдавшиеся в срок или в последний час перед сроком; фигурными скобками обозначены явления, наблюдавшиеся между сроками (за 1-3 часа до срока); квадратными скобками обозначены град или гололедные отложения с указанием их диаметра в мм.
Облачность - указаны через наклонную черту общая и нижняя облачность в баллах и высота нижней границы облаков в метрах; квадратными скобками обозначены формы облаков: Ci - перистые, Cs - перисто-слоистые, Cc - перисто-кучевые, Ac - высококучевые, As - высокослоистые, Sc - слоисто-кучевые, Ns - слоисто-дождевые, Cu - кучевые, Cb - кучево-дождевые. Подробнее классификацию облаков см. в Атласе облаков (PDF).
T - Температура воздуха - температура, измеренная на высоте 2 м над землей.
Td - Температура точки росы - температура, при понижении до которой содержащийся в воздухе водяной пар достигнет насыщения.
f - Относительная влажность воздуха - влажноcть воздуха, измеренная на высоте 2 м над землей.
Te - Эффективная температура - температура, которую ощущает одетый по сезону человек в тени. Характеристика душности погоды. При расчете учитывается влияние влажности воздуха и скорости ветра на теплоощущения человека.
Tes - Эффективная температура на солнце - температура, которую ощущает человек, с поправкой на солнечный нагрев. Характеристика знойности погоды. Зависит от высоты солнца над горизонтом, облачности и скорости ветра. Ночью, в пасмурную погоду, а также при ветре 12 м/с и более поправка равна нулю.
P - Атмосферное давление - приведенное к уровню моря атмосферное давление.
Po - Атмосферное давление - измеренное на уровне метеостанции атмосферное давление.
Tmin - Минимальная температура - минимум температуры воздуха на высоте 2 м над землей.
Tmax - Максимальная температура - максимум температуры воздуха на высоте 2 м над землей.
R - Количество осадков - Количество выпавших осадков за период времени, мм. При наведении курсора мыши на число - период времени, за который выпало указанное количество осадков.
R24 - Количество осадков - Количество выпавших осадков за 24 часа, мм.
S - Снежный покров - Высота снежного покрова, см. При наведении курсора мыши на число - состояние снежного покрова и степень покрытия местности в баллах.